TimeEDT,TemperatureF,Dew PointF,Humidity,Sea Level PressureIn,VisibilityMPH,Wind Direction,Wind SpeedMPH,Gust SpeedMPH,PrecipitationIn,Events,Conditions,WindDirDegrees,DateUTC
12:54 AM,60.1,57.9,93,29.92,10.0,West,3.5,-,0.00,Rain,Light Rain,260,2013-08-01 04:54:00
1:54 AM,59.0,57.9,96,29.87,10.0,WSW,6.9,-,0.05,Rain,Light Rain,240,2013-08-01 05:54:00
2:54 AM,59.0,57.9,96,29.85,10.0,Calm,Calm,-,0.00,,Partly Cloudy,0,2013-08-01 06:54:00
3:54 AM,57.0,57.0,100,29.85,10.0,West,4.6,-,N/A,,Clear,260,2013-08-01 07:54:00
4:54 AM,57.0,55.9,96,29.86,10.0,Calm,Calm,-,N/A,,Scattered Clouds,0,2013-08-01 08:54:00
5:22 AM,57.2,55.4,94,29.87,10.0,West,3.5,-,N/A,,Scattered Clouds,280,2013-08-01 09:22:00
5:41 AM,57.2,55.4,94,29.87,10.0,West,3.5,-,N/A,,Mostly Cloudy,270,2013-08-01 09:41:00
5:54 AM,57.0,55.9,96,29.87,10.0,Calm,Calm,-,N/A,,Overcast,0,2013-08-01 09:54:00
6:26 AM,57.2,55.4,94,29.87,10.0,Calm,Calm,-,N/A,,Scattered Clouds,0,2013-08-01 10:26:00
6:54 AM,55.9,55.0,97,29.88,10.0,Calm,Calm,-,N/A,,Clear,0,2013-08-01 10:54:00
7:54 AM,57.9,55.9,93,29.88,10.0,Calm,Calm,-,N/A,,Clear,0,2013-08-01 11:54:00
8:54 AM,63.0,59.0,87,29.88,10.0,NW,4.6,-,N/A,,Partly Cloudy,320,2013-08-01 12:54:00
9:07 AM,62.6,57.2,82,29.88,10.0,WNW,4.6,-,N/A,,Mostly Cloudy,300,2013-08-01 13:07:00
9:54 AM,64.0,59.0,84,29.87,10.0,NW,6.9,-,N/A,,Mostly Cloudy,320,2013-08-01 13:54:00
10:15 AM,64.4,60.8,88,29.87,10.0,NW,4.6,-,N/A,,Overcast,310,2013-08-01 14:15:00
10:54 AM,66.0,60.1,81,29.87,10.0,West,6.9,-,N/A,,Mostly Cloudy,280,2013-08-01 14:54:00
11:22 AM,66.2,60.8,83,29.87,10.0,West,6.9,-,N/A,,Mostly Cloudy,280,2013-08-01 15:22:00
11:30 AM,69.8,60.8,73,29.87,10.0,Variable,6.9,-,N/A,,Scattered Clouds,0,2013-08-01 15:30:00
11:47 AM,69.8,60.8,73,29.87,10.0,WNW,6.9,-,N/A,,Mostly Cloudy,300,2013-08-01 15:47:00
11:54 AM,71.1,61.0,70,29.87,10.0,Variable,5.8,-,N/A,,Scattered Clouds,0,2013-08-01 15:54:00
12:01 PM,69.8,60.8,73,29.87,10.0,NW,8.1,-,N/A,,Mostly Cloudy,310,2013-08-01 16:01:00
12:12 PM,69.8,60.8,73,29.87,10.0,West,9.2,-,N/A,,Scattered Clouds,280,2013-08-01 16:12:00
12:54 PM,71.1,60.1,68,29.86,10.0,NW,5.8,-,N/A,,Mostly Cloudy,310,2013-08-01 16:54:00
1:05 PM,71.6,60.8,69,29.86,10.0,WNW,9.2,-,N/A,,Mostly Cloudy,300,2013-08-01 17:05:00
1:17 PM,71.6,60.8,69,29.86,10.0,NW,4.6,-,N/A,Thunderstorm,Thunderstorm,320,2013-08-01 17:17:00
1:37 PM,73.4,57.2,57,29.86,10.0,NW,11.5,17.3,N/A,,Partly Cloudy,320,2013-08-01 17:37:00
1:54 PM,73.9,55.9,53,29.86,10.0,WNW,8.1,18.4,N/A,,Partly Cloudy,300,2013-08-01 17:54:00
2:23 PM,73.4,55.4,53,29.86,10.0,NW,10.4,-,N/A,Thunderstorm,Thunderstorm,320,2013-08-01 18:23:00
2:40 PM,71.6,59.0,64,29.86,10.0,NW,6.9,-,0.01,Rain,Light Rain,320,2013-08-01 18:40:00
2:54 PM,73.9,55.9,53,29.85,10.0,Variable,5.8,-,0.01,,Mostly Cloudy,0,2013-08-01 18:54:00
3:54 PM,75.9,53.1,45,29.85,10.0,Variable,6.9,-,N/A,,Scattered Clouds,0,2013-08-01 19:54:00
4:54 PM,75.9,52.0,43,29.86,10.0,West,11.5,18.4,N/A,,Partly Cloudy,270,2013-08-01 20:54:00
5:54 PM,75.9,51.1,42,29.86,10.0,NW,9.2,18.4,N/A,,Partly Cloudy,310,2013-08-01 21:54:00
6:54 PM,73.9,52.0,46,29.87,10.0,WNW,6.9,-,N/A,,Partly Cloudy,300,2013-08-01 22:54:00
7:54 PM,72.0,52.0,49,29.86,10.0,WNW,3.5,-,N/A,,Clear,300,2013-08-01 23:54:00
8:54 PM,68.0,52.0,56,29.87,10.0,Calm,Calm,-,N/A,,Scattered Clouds,0,2013-08-02 00:54:00
9:54 PM,57.9,55.0,90,29.88,10.0,Calm,Calm,-,N/A,,Clear,0,2013-08-02 01:54:00
10:54 PM,57.9,54.0,87,29.89,10.0,Calm,Calm,-,N/A,,Scattered Clouds,0,2013-08-02 02:54:00
11:54 PM,57.9,54.0,87,29.89,10.0,SW,3.5,-,N/A,,Clear,230,2013-08-02 03:54:00